AIB280 EGLL-LFBO

Flight info

Callsign AIB280
Flight time 1h 16m
Altitude 33000
Route MODMI M185 MID L151 SITET UN859 SOPIL DCT BALAN DCT EVPOK DCT NARAK
Aircraft A359/H-SDE2E3GHIJ3J4J5LM1ORWXY/LB1D1

Departure

Time 2026-05-05 00:14
Airport London Heathrow Airport (EGLL)

Arrival

Time 2026-05-05 01:31
Airport Toulouse-Blagnac Airport (LFBO)
Time Latitude Longitude Altitude Speed Heading
2026-05-04 23:42 51.47144 -0.47481 95 ft 0 kts 269°
2026-05-05 00:04 51.47144 -0.47474 96 ft 2 kts 267°
2026-05-05 00:04 51.47145 -0.47463 97 ft 0 kts 263°
2026-05-05 00:04 51.47146 -0.47441 92 ft 2 kts 258°
2026-05-05 00:04 51.47150 -0.47416 93 ft 2 kts 249°
2026-05-05 00:05 51.47158 -0.47393 92 ft 2 kts 235°
2026-05-05 00:05 51.47168 -0.47373 91 ft 2 kts 216°
2026-05-05 00:05 51.47183 -0.47361 93 ft 2 kts 197°
2026-05-05 00:05 51.47198 -0.47356 93 ft 2 kts 184°
2026-05-05 00:06 51.47203 -0.47355 92 ft 0 kts 181°
2026-05-05 00:08 51.47192 -0.47356 95 ft 5 kts 181°
2026-05-05 00:08 51.47133 -0.47357 91 ft 12 kts 181°
2026-05-05 00:09 51.47024 -0.47356 94 ft 19 kts 180°
2026-05-05 00:09 51.46874 -0.47354 94 ft 22 kts 179°
2026-05-05 00:09 51.46712 -0.47351 91 ft 23 kts 180°
2026-05-05 00:09 51.46674 -0.47374 93 ft 6 kts 229°
2026-05-05 00:10 51.46657 -0.47526 90 ft 20 kts 269°
2026-05-05 00:10 51.46655 -0.47761 91 ft 22 kts 270°
2026-05-05 00:10 51.46654 -0.47995 92 ft 21 kts 269°
2026-05-05 00:10 51.46653 -0.48243 93 ft 23 kts 270°
2026-05-05 00:11 51.46653 -0.48446 97 ft 3 kts 270°
2026-05-05 00:11 51.46653 -0.48520 97 ft 12 kts 270°
2026-05-05 00:11 51.46652 -0.48681 95 ft 12 kts 267°
2026-05-05 00:11 51.46631 -0.48741 97 ft 0 kts 215°
2026-05-05 00:12 51.46629 -0.48743 97 ft 3 kts 214°
2026-05-05 00:13 51.46555 -0.48788 94 ft 20 kts 198°
2026-05-05 00:13 51.46515 -0.48788 92 ft 9 kts 161°
2026-05-05 00:13 51.46472 -0.48634 96 ft 24 kts 82°
2026-05-05 00:13 51.46480 -0.48242 93 ft 48 kts 89°
2026-05-05 00:14 51.46483 -0.47235 93 ft 131 kts 91°
2026-05-05 00:14 51.46481 -0.45513 553 ft 161 kts 90°
2026-05-05 00:14 51.46404 -0.43740 1579 ft 166 kts 94°
2026-05-05 00:14 51.46189 -0.41693 1926 ft 212 kts 105°
2026-05-05 00:15 51.45441 -0.39450 2562 ft 244 kts 131°
2026-05-05 00:15 51.43962 -0.38012 3546 ft 257 kts 159°
2026-05-05 00:15 51.42239 -0.37087 4607 ft 265 kts 163°
2026-05-05 00:15 51.40426 -0.36360 5477 ft 272 kts 174°
2026-05-05 00:16 51.38566 -0.36656 5908 ft 270 kts 201°
2026-05-05 00:16 51.36851 -0.37870 6008 ft 270 kts 208°
2026-05-05 00:16 51.35200 -0.39196 5992 ft 270 kts 208°
2026-05-05 00:16 51.33487 -0.40565 5991 ft 272 kts 208°
2026-05-05 00:17 51.31784 -0.41906 5992 ft 273 kts 207°
2026-05-05 00:17 51.30077 -0.43257 5993 ft 274 kts 207°
2026-05-05 00:17 51.28370 -0.44603 6011 ft 274 kts 207°
2026-05-05 00:17 51.26659 -0.45956 5992 ft 274 kts 208°
2026-05-05 00:18 51.24957 -0.47321 6003 ft 274 kts 208°
2026-05-05 00:18 51.23273 -0.48669 5988 ft 273 kts 208°
2026-05-05 00:18 51.21550 -0.50042 6241 ft 276 kts 208°
2026-05-05 00:18 51.19828 -0.51381 7180 ft 279 kts 207°
2026-05-05 00:19 51.18087 -0.52724 8555 ft 277 kts 206°
2026-05-05 00:19 51.16346 -0.54067 9906 ft 279 kts 205°
2026-05-05 00:19 51.14562 -0.55439 10851 ft 294 kts 205°
2026-05-05 00:19 51.12625 -0.56926 11394 ft 323 kts 205°
2026-05-05 00:20 51.10526 -0.58516 12130 ft 341 kts 203°
2026-05-05 00:20 51.08299 -0.59817 13138 ft 348 kts 194°
2026-05-05 00:20 51.05906 -0.60543 14155 ft 354 kts 184°
2026-05-05 00:20 51.03427 -0.60505 15074 ft 359 kts 172°
2026-05-05 00:21 51.00976 -0.59628 16065 ft 363 kts 161°
2026-05-05 00:21 50.98580 -0.58281 17020 ft 368 kts 158°
2026-05-05 00:21 50.96243 -0.56755 17977 ft 373 kts 155°
2026-05-05 00:21 50.93827 -0.55078 18964 ft 377 kts 155°
2026-05-05 00:22 50.91382 -0.53371 19931 ft 381 kts 156°
2026-05-05 00:22 50.88968 -0.51712 20881 ft 385 kts 156°
2026-05-05 00:22 50.86457 -0.50018 21845 ft 389 kts 157°
2026-05-05 00:22 50.83979 -0.48371 22784 ft 393 kts 158°
2026-05-05 00:23 50.81432 -0.46697 23639 ft 399 kts 158°
2026-05-05 00:23 50.78844 -0.45004 24395 ft 404 kts 158°
2026-05-05 00:23 50.76237 -0.43303 25172 ft 407 kts 158°
2026-05-05 00:23 50.73603 -0.41586 25958 ft 411 kts 158°
2026-05-05 00:24 50.70961 -0.39865 26755 ft 413 kts 159°
2026-05-05 00:24 50.68290 -0.38126 27561 ft 416 kts 159°
2026-05-05 00:24 50.65594 -0.36372 28303 ft 420 kts 159°
2026-05-05 00:24 50.62882 -0.34608 29068 ft 423 kts 159°
2026-05-05 00:25 50.60149 -0.32833 29887 ft 425 kts 160°
2026-05-05 00:25 50.57408 -0.31056 30495 ft 428 kts 160°
2026-05-05 00:25 50.54634 -0.29261 30990 ft 434 kts 160°
2026-05-05 00:25 50.51825 -0.27445 31498 ft 439 kts 160°
2026-05-05 00:26 50.49020 -0.25634 31965 ft 444 kts 160°
2026-05-05 00:26 50.46113 -0.23758 32454 ft 448 kts 160°
2026-05-05 00:26 50.43250 -0.21913 32886 ft 453 kts 160°
2026-05-05 00:26 50.40318 -0.20025 33001 ft 455 kts 160°
2026-05-05 00:27 50.37398 -0.18146 33000 ft 454 kts 160°
2026-05-05 00:27 50.31540 -0.14386 32995 ft 454 kts 160°
2026-05-05 00:27 50.28613 -0.12512 33254 ft 456 kts 160°
2026-05-05 00:28 50.25669 -0.10631 33774 ft 458 kts 160°
2026-05-05 00:28 50.22707 -0.08741 34197 ft 461 kts 160°
2026-05-05 00:28 50.19726 -0.06836 34528 ft 464 kts 159°
2026-05-05 00:28 50.16761 -0.04843 35093 ft 461 kts 158°
2026-05-05 00:29 50.13834 -0.02796 35603 ft 461 kts 157°
2026-05-05 00:29 50.10884 -0.00804 35925 ft 464 kts 161°
2026-05-05 00:29 50.07818 0.00746 36363 ft 463 kts 165°
2026-05-05 00:29 50.04755 0.02085 36758 ft 464 kts 166°
2026-05-05 00:30 50.01624 0.03367 37095 ft 466 kts 167°
2026-05-05 00:30 49.98464 0.04612 37448 ft 468 kts 167°
2026-05-05 00:30 49.95293 0.05842 37828 ft 469 kts 167°
2026-05-05 00:30 49.92129 0.07066 38224 ft 470 kts 166°
2026-05-05 00:31 49.88951 0.08297 38645 ft 470 kts 166°
2026-05-05 00:31 49.85780 0.09530 38946 ft 471 kts 166°
2026-05-05 00:31 49.82594 0.10771 39163 ft 473 kts 166°
2026-05-05 00:31 49.79395 0.12019 39458 ft 474 kts 166°
2026-05-05 00:32 49.76186 0.13271 39671 ft 476 kts 166°
2026-05-05 00:32 49.72981 0.14521 40058 ft 474 kts 166°
2026-05-05 00:32 49.69819 0.15752 40304 ft 475 kts 166°
2026-05-05 00:32 49.66626 0.16998 40679 ft 473 kts 166°
2026-05-05 00:33 49.63424 0.18275 40852 ft 476 kts 166°
2026-05-05 00:33 49.60215 0.19572 41113 ft 477 kts 166°
2026-05-05 00:33 49.56994 0.20879 41328 ft 478 kts 166°
2026-05-05 00:33 49.53773 0.22184 41656 ft 477 kts 166°
2026-05-05 00:34 49.50560 0.23481 41893 ft 479 kts 166°
2026-05-05 00:34 49.47326 0.24781 42064 ft 481 kts 166°
2026-05-05 00:34 49.44089 0.26078 42330 ft 481 kts 166°
2026-05-05 00:34 49.40878 0.27362 42555 ft 481 kts 166°
2026-05-05 00:35 49.37633 0.28657 42799 ft 482 kts 166°
2026-05-05 00:35 49.34381 0.29953 42932 ft 484 kts 166°
2026-05-05 00:35 49.31114 0.31254 42968 ft 483 kts 166°
2026-05-05 00:36 49.24627 0.33918 42961 ft 483 kts 165°
2026-05-05 00:36 49.18149 0.36683 42948 ft 483 kts 165°
2026-05-05 00:37 49.11669 0.39435 42945 ft 483 kts 165°
2026-05-05 00:37 49.05226 0.42142 42940 ft 483 kts 165°
2026-05-05 00:38 48.98736 0.44853 42939 ft 483 kts 165°
2026-05-05 00:38 48.92259 0.47549 42941 ft 483 kts 166°
2026-05-05 00:39 48.85769 0.50245 42936 ft 483 kts 166°
2026-05-05 00:39 48.79319 0.52918 42933 ft 483 kts 166°
2026-05-05 00:40 48.72816 0.55541 42930 ft 483 kts 166°
2026-05-05 00:40 48.66298 0.58064 42930 ft 483 kts 166°
2026-05-05 00:41 48.59790 0.60581 42925 ft 482 kts 166°
2026-05-05 00:41 48.53323 0.63094 42919 ft 482 kts 166°
2026-05-05 00:42 48.46837 0.65672 42921 ft 482 kts 166°
2026-05-05 00:42 48.40359 0.68325 42919 ft 482 kts 166°
2026-05-05 00:43 48.33885 0.70970 42914 ft 482 kts 166°
2026-05-05 00:43 48.28510 0.73149 42914 ft 482 kts 166°
2026-05-05 00:44 48.22032 0.75760 42906 ft 482 kts 166°
2026-05-05 00:44 48.15539 0.78314 42908 ft 481 kts 166°
2026-05-05 00:45 48.09061 0.80840 42907 ft 481 kts 166°
2026-05-05 00:45 48.02605 0.83361 42905 ft 481 kts 166°
2026-05-05 00:46 47.96125 0.85892 42900 ft 480 kts 167°
2026-05-05 00:46 47.89661 0.88411 42900 ft 480 kts 167°
2026-05-05 00:47 47.83189 0.90927 42898 ft 480 kts 167°
2026-05-05 00:47 47.76728 0.93433 42890 ft 480 kts 167°
2026-05-05 00:48 47.70304 0.95915 42895 ft 479 kts 167°
2026-05-05 00:48 47.63838 0.98408 42894 ft 479 kts 167°
2026-05-05 00:49 47.57394 1.00886 42886 ft 479 kts 167°
2026-05-05 00:49 47.50969 1.03351 42886 ft 479 kts 167°
2026-05-05 00:50 47.44492 1.05709 42890 ft 478 kts 172°
2026-05-05 00:50 47.37893 1.06357 42884 ft 475 kts 181°
2026-05-05 00:51 47.31267 1.06262 42891 ft 475 kts 182°
2026-05-05 00:51 47.24697 1.06055 42895 ft 475 kts 182°
2026-05-05 00:52 47.18048 1.05865 42898 ft 475 kts 182°
2026-05-05 00:52 47.11481 1.05704 42897 ft 474 kts 182°
2026-05-05 00:53 47.04870 1.05551 42908 ft 474 kts 182°
2026-05-05 00:53 46.98274 1.05373 42901 ft 474 kts 183°
2026-05-05 00:54 46.91716 1.05077 42908 ft 473 kts 183°
2026-05-05 00:54 46.85118 1.04764 42900 ft 473 kts 183°
2026-05-05 00:55 46.78540 1.04472 42902 ft 473 kts 183°
2026-05-05 00:55 46.71958 1.04191 42904 ft 473 kts 183°
2026-05-05 00:56 46.65415 1.03915 42911 ft 473 kts 183°
2026-05-05 00:56 46.58840 1.03638 42904 ft 473 kts 183°
2026-05-05 00:57 46.52245 1.03594 42903 ft 474 kts 176°
2026-05-05 00:57 46.45729 1.05177 42904 ft 475 kts 170°
2026-05-05 00:58 46.39305 1.07326 42896 ft 476 kts 168°
2026-05-05 00:58 46.32860 1.09561 42897 ft 476 kts 168°
2026-05-05 00:59 46.26410 1.11747 42904 ft 476 kts 169°
2026-05-05 00:59 46.19954 1.13897 42899 ft 476 kts 169°
2026-05-05 01:00 46.13534 1.16020 42900 ft 476 kts 169°
2026-05-05 01:00 46.07086 1.18148 42907 ft 475 kts 169°
2026-05-05 01:01 46.00628 1.20275 42909 ft 475 kts 169°
2026-05-05 01:01 45.94188 1.22394 42908 ft 474 kts 169°
2026-05-05 01:02 45.87792 1.24492 42912 ft 474 kts 169°
2026-05-05 01:02 45.81353 1.26599 42911 ft 474 kts 169°
2026-05-05 01:03 45.74911 1.28702 42906 ft 474 kts 169°
2026-05-05 01:03 45.68456 1.30804 42906 ft 475 kts 169°
2026-05-05 01:04 45.62006 1.32900 42902 ft 475 kts 169°
2026-05-05 01:04 45.52371 1.36022 42911 ft 475 kts 169°
2026-05-05 01:05 45.45909 1.38111 42911 ft 476 kts 169°
2026-05-05 01:05 45.39444 1.40194 42911 ft 476 kts 169°
2026-05-05 01:06 45.32979 1.42271 42919 ft 476 kts 169°
2026-05-05 01:06 45.26549 1.44333 42937 ft 476 kts 169°
2026-05-05 01:07 45.20064 1.46408 42933 ft 477 kts 169°
2026-05-05 01:07 45.13589 1.48476 42937 ft 477 kts 170°
2026-05-05 01:08 45.07103 1.50541 42939 ft 478 kts 170°
2026-05-05 01:08 45.00614 1.52603 42940 ft 478 kts 170°
2026-05-05 01:09 44.94120 1.54663 42932 ft 478 kts 170°
2026-05-05 01:09 44.87656 1.56707 42928 ft 478 kts 170°
2026-05-05 01:10 44.81164 1.58756 42937 ft 478 kts 170°
2026-05-05 01:10 44.74663 1.60803 42939 ft 478 kts 170°
2026-05-05 01:11 44.71436 1.61819 42651 ft 468 kts 170°
2026-05-05 01:11 44.68292 1.62809 41640 ft 461 kts 170°
2026-05-05 01:11 44.65150 1.63793 40137 ft 465 kts 170°
2026-05-05 01:11 44.61968 1.64787 38687 ft 468 kts 170°
2026-05-05 01:12 44.58800 1.65778 36934 ft 466 kts 170°
2026-05-05 01:12 44.55630 1.66769 35069 ft 467 kts 169°
2026-05-05 01:12 44.52461 1.67758 33117 ft 465 kts 169°
2026-05-05 01:12 44.49297 1.68744 30766 ft 467 kts 169°
2026-05-05 01:13 44.46097 1.69741 28222 ft 472 kts 169°
2026-05-05 01:13 44.42907 1.70734 26254 ft 466 kts 169°
2026-05-05 01:13 44.39790 1.71705 24620 ft 452 kts 169°
2026-05-05 01:13 44.36778 1.72643 22859 ft 444 kts 169°
2026-05-05 01:14 44.33787 1.73539 20983 ft 434 kts 172°
2026-05-05 01:14 44.30818 1.73814 19219 ft 422 kts 186°
2026-05-05 01:14 44.28018 1.72919 17890 ft 405 kts 202°
2026-05-05 01:14 44.25497 1.71341 17497 ft 402 kts 200°
2026-05-05 01:15 44.22795 1.70520 17147 ft 392 kts 188°
2026-05-05 01:15 44.20078 1.70179 16305 ft 389 kts 186°
2026-05-05 01:15 44.17396 1.69919 15558 ft 383 kts 186°
2026-05-05 01:15 44.14762 1.69651 14846 ft 377 kts 186°
2026-05-05 01:16 44.12191 1.69373 14150 ft 372 kts 186°
2026-05-05 01:16 44.09619 1.69086 13401 ft 367 kts 186°
2026-05-05 01:16 44.07092 1.68797 12674 ft 361 kts 186°
2026-05-05 01:16 44.04607 1.68511 11989 ft 356 kts 186°
2026-05-05 01:17 44.02143 1.68225 11304 ft 353 kts 186°
2026-05-05 01:17 43.99750 1.67948 11068 ft 335 kts 186°
2026-05-05 01:17 43.97494 1.67687 10952 ft 316 kts 187°
2026-05-05 01:17 43.95357 1.67439 10804 ft 299 kts 187°
2026-05-05 01:18 43.93331 1.67203 10684 ft 284 kts 187°
2026-05-05 01:18 43.91409 1.66980 10552 ft 271 kts 187°
2026-05-05 01:18 43.89585 1.66766 10430 ft 264 kts 187°
2026-05-05 01:18 43.87756 1.66551 10304 ft 263 kts 187°
2026-05-05 01:19 43.85932 1.66337 10191 ft 264 kts 187°
2026-05-05 01:19 43.84104 1.66123 9986 ft 263 kts 187°
2026-05-05 01:19 43.82249 1.65905 9744 ft 275 kts 187°
2026-05-05 01:19 43.80293 1.65676 9619 ft 279 kts 187°
2026-05-05 01:20 43.78388 1.65456 9079 ft 279 kts 187°
2026-05-05 01:20 43.76449 1.65232 8640 ft 279 kts 187°
2026-05-05 01:20 43.74510 1.65008 8283 ft 279 kts 187°
2026-05-05 01:20 43.72584 1.64786 7944 ft 277 kts 187°
2026-05-05 01:21 43.70661 1.64564 7601 ft 276 kts 187°
2026-05-05 01:21 43.68745 1.64342 7263 ft 275 kts 187°
2026-05-05 01:21 43.66836 1.64121 6932 ft 274 kts 187°
2026-05-05 01:21 43.64939 1.63902 6582 ft 273 kts 187°
2026-05-05 01:22 43.63067 1.63686 6232 ft 273 kts 187°
2026-05-05 01:22 43.61174 1.63464 5822 ft 271 kts 187°
2026-05-05 01:22 43.59302 1.63169 5441 ft 270 kts 190°
2026-05-05 01:22 43.57461 1.62847 5231 ft 260 kts 189°
2026-05-05 01:23 43.55706 1.62545 5088 ft 249 kts 190°
2026-05-05 01:23 43.53986 1.62247 4859 ft 249 kts 189°
2026-05-05 01:23 43.52271 1.61957 4540 ft 248 kts 189°
2026-05-05 01:23 43.50558 1.61662 4226 ft 245 kts 191°
2026-05-05 01:24 43.49007 1.60926 4006 ft 232 kts 216°
2026-05-05 01:24 43.47995 1.59359 3896 ft 214 kts 246°
2026-05-05 01:24 43.47555 1.57482 3858 ft 198 kts 259°
2026-05-05 01:24 43.47271 1.55695 3822 ft 183 kts 260°
2026-05-05 01:25 43.47110 1.54033 3790 ft 170 kts 276°
2026-05-05 01:25 43.47558 1.52636 3805 ft 151 kts 304°
2026-05-05 01:25 43.48219 1.51592 3815 ft 140 kts 314°
2026-05-05 01:25 43.48938 1.50731 3764 ft 134 kts 319°
2026-05-05 01:26 43.49656 1.49946 3584 ft 130 kts 320°
2026-05-05 01:26 43.50368 1.49202 3390 ft 127 kts 320°
2026-05-05 01:26 43.51057 1.48485 3210 ft 121 kts 321°
2026-05-05 01:26 43.51711 1.47804 3044 ft 116 kts 321°
2026-05-05 01:27 43.52345 1.47143 2888 ft 115 kts 321°
2026-05-05 01:27 43.52984 1.46479 2733 ft 115 kts 321°
2026-05-05 01:27 43.53620 1.45817 2567 ft 114 kts 321°
2026-05-05 01:27 43.54254 1.45158 2425 ft 114 kts 320°
2026-05-05 01:28 43.54891 1.44496 2265 ft 115 kts 320°
2026-05-05 01:28 43.55528 1.43833 2103 ft 115 kts 319°
2026-05-05 01:28 43.56165 1.43171 1935 ft 115 kts 319°
2026-05-05 01:28 43.56805 1.42513 1760 ft 114 kts 320°
2026-05-05 01:29 43.57228 1.42084 1662 ft 114 kts 319°
2026-05-05 01:29 43.57858 1.41410 1496 ft 115 kts 317°
2026-05-05 01:29 43.58486 1.40712 1370 ft 117 kts 317°
2026-05-05 01:29 43.59365 1.39845 1138 ft 117 kts 319°
2026-05-05 01:30 43.60013 1.39170 1006 ft 118 kts 319°
2026-05-05 01:30 43.60673 1.38490 830 ft 118 kts 317°
2026-05-05 01:30 43.61113 1.38027 735 ft 119 kts 319°
2026-05-05 01:30 43.61769 1.37342 589 ft 118 kts 320°
2026-05-05 01:31 43.62420 1.36671 501 ft 110 kts 320°
2026-05-05 01:31 43.62848 1.36222 489 ft 38 kts 323°
2026-05-05 01:31 43.63030 1.36031 489 ft 33 kts 322°
2026-05-05 01:31 43.63080 1.35946 493 ft 7 kts 281°
2026-05-05 01:32 43.63036 1.35828 500 ft 24 kts 234°
2026-05-05 01:32 43.62976 1.35572 501 ft 26 kts 259°
2026-05-05 01:32 43.62965 1.35481 501 ft 0 kts 261°